Weather History for Marshall, MN

Change the Weather History Date:

Saturday, January 19, 2013

  Actual Average Record
Temperature  
Mean Temperature 21 °F -  
Max Temperature 39 °F 25 °F 47 °F (1981)
Min Temperature 3 °F 4 °F -29 °F (1970)
Degree Days  
Heating Degree Days 44    
Moisture  
Dew Point 17 °F    
Average Humidity 70    
Maximum Humidity 80    
Minimum Humidity 57    
Precipitation  
Precipitation 0.00 in - - ()
Sea Level Pressure  
Sea Level Pressure 29.94 in    
Wind  
Wind Speed 18 mph (WNW)    
Max Wind Speed 37 mph    
Max Gust Speed 47 mph    
Visibility 10 miles    
Events      
Averages and records for this station are not official NWS values.
T = Trace of Precipitation, MM = Missing Value Source: NWS Daily Summary

Daily Weather History Graph

Daily Weather History Graph

Search for Another Location

Airport:

Trip Planner

Search our weather history database for the weather conditions in past years. The results will help you decide how hot, cold, wet, or windy it might be!

Date:

Astronomy

Jan. 19, 2013 Rise Set
Actual Time 7:53 AM CST 5:15 PM CST
Civil Twilight 7:21 AM CST 5:47 PM CST
Nautical Twilight 6:45 AM CST 6:22 PM CST
Astronomical Twilight 6:11 AM CST 6:57 PM CST
Moon 11:44 AM CST (1/19) 1:25 AM CST (1/19)
Length of Visible Light 10h 25m
Length of Day
9h 21m
First Quarter, 57% of the Moon is Illuminated
Jan 19
First Quarter
Jan 26
Full
Feb 3
Last Quarter
Feb 10
New
Feb 17
First Quarter

Hourly Weather History & Observations

Time (CST) Temp. Windchill Dew Point Humidity Pressure Visibility Wind Dir Wind Speed Gust Speed Precip Events Conditions
12:15 AM 37.4 °F 28.5 °F 28.4 °F 70% 29.73 in 10.0 mi WSW 15.0 mph - N/A   Scattered Clouds
12:35 AM 37.4 °F 27.8 °F 28.4 °F 70% 29.73 in 10.0 mi WSW 17.3 mph - N/A   Scattered Clouds
12:55 AM 37.4 °F 28.9 °F 30.2 °F 75% 29.72 in 10.0 mi WSW 13.8 mph - N/A   Scattered Clouds
1:15 AM 37.4 °F 28.9 °F 30.2 °F 75% 29.72 in 10.0 mi SW 13.8 mph - N/A   Mostly Cloudy
1:35 AM 37.4 °F 29.3 °F 30.2 °F 75% 29.72 in 10.0 mi SW 12.7 mph - N/A   Mostly Cloudy
1:55 AM 37.4 °F 28.2 °F 28.4 °F 70% 29.72 in 10.0 mi SW 16.1 mph - N/A   Partly Cloudy
2:15 AM 37.4 °F 29.3 °F 28.4 °F 70% 29.72 in 10.0 mi WSW 12.7 mph - N/A   Clear
2:35 AM 37.4 °F 30.3 °F 30.2 °F 75% 29.72 in 10.0 mi SW 10.4 mph - N/A   Clear
2:55 AM 37.4 °F 28.5 °F 28.4 °F 70% 29.71 in 10.0 mi WSW 15.0 mph - N/A   Clear
3:15 AM 37.4 °F 28.2 °F 28.4 °F 70% 29.70 in 10.0 mi SW 16.1 mph - N/A   Clear
3:35 AM 37.4 °F 28.5 °F 28.4 °F 70% 29.70 in 10.0 mi WSW 15.0 mph - N/A   Clear
3:55 AM 35.6 °F 26.2 °F 26.6 °F 70% 29.70 in 10.0 mi WSW 15.0 mph - N/A   Scattered Clouds
4:15 AM 35.6 °F 26.2 °F 26.6 °F 70% 29.72 in 10.0 mi West 15.0 mph - N/A   Scattered Clouds
4:35 AM 35.6 °F 27.1 °F 28.4 °F 75% 29.73 in 10.0 mi West 12.7 mph - N/A   Clear
4:55 AM 35.6 °F 26.6 °F 26.6 °F 70% 29.72 in 10.0 mi West 13.8 mph - N/A   Clear
5:15 AM 33.8 °F 24.8 °F 26.6 °F 75% 29.71 in 10.0 mi West 12.7 mph - N/A   Clear
5:35 AM 33.8 °F 25.8 °F 26.6 °F 75% 29.72 in 10.0 mi West 10.4 mph - N/A   Clear
5:55 AM 33.8 °F 26.4 °F 26.6 °F 75% 29.72 in 10.0 mi West 9.2 mph - N/A   Clear
6:15 AM 30.2 °F 20.8 °F 24.8 °F 80% 29.74 in 10.0 mi WNW 11.5 mph - N/A   Clear
6:35 AM 30.2 °F 20.2 °F 24.8 °F 80% 29.74 in 10.0 mi West 12.7 mph - N/A   Clear
6:55 AM 32.0 °F 23.0 °F 26.6 °F 80% 29.73 in 10.0 mi West 11.5 mph - N/A   Scattered Clouds
7:15 AM 33.8 °F 25.3 °F 26.6 °F 75% 29.74 in 10.0 mi West 11.5 mph - N/A   Mostly Cloudy
7:35 AM 33.8 °F 27.0 °F 26.6 °F 75% 29.75 in 10.0 mi WNW 8.1 mph - N/A   Overcast
8:15 AM 33.8 °F 25.3 °F 26.6 °F 75% 29.78 in 10.0 mi WNW 11.5 mph - N/A   Mostly Cloudy
8:35 AM 35.6 °F 28.0 °F 26.6 °F 70% 29.78 in 10.0 mi West 10.4 mph - N/A   Mostly Cloudy
8:55 AM 35.6 °F 28.0 °F 26.6 °F 70% 29.79 in 10.0 mi West 10.4 mph - N/A   Mostly Cloudy
9:15 AM 37.4 °F 28.9 °F 26.6 °F 65% 29.80 in 10.0 mi WNW 13.8 mph - N/A   Overcast
9:35 AM 37.4 °F 28.5 °F 28.4 °F 70% 29.81 in 10.0 mi WNW 15.0 mph - N/A   Overcast
9:55 AM 37.4 °F 28.2 °F 28.4 °F 70% 29.83 in 10.0 mi WNW 16.1 mph - N/A   Scattered Clouds
10:15 AM 37.4 °F 28.2 °F 28.4 °F 70% 29.84 in 10.0 mi WNW 16.1 mph - N/A   Mostly Cloudy
10:35 AM 37.4 °F 27.8 °F 28.4 °F 70% 29.84 in 10.0 mi WNW 17.3 mph - N/A   Mostly Cloudy
10:55 AM 37.4 °F 27.8 °F 28.4 °F 70% 29.85 in 10.0 mi WNW 17.3 mph - N/A   Scattered Clouds
11:15 AM 39.2 °F 29.6 °F 28.4 °F 65% 29.86 in 10.0 mi WNW 19.6 mph - N/A   Clear
11:35 AM 37.4 °F 27.8 °F 28.4 °F 70% 29.86 in 10.0 mi WNW 17.3 mph - N/A   Clear
11:55 AM 37.4 °F 27.5 °F 28.4 °F 70% 29.86 in 10.0 mi WNW 18.4 mph - N/A   Clear
12:15 PM 39.2 °F 29.3 °F 28.4 °F 65% 29.87 in 10.0 mi WNW 20.7 mph 25.3 mph N/A   Mostly Cloudy
12:35 PM 37.4 °F 26.1 °F 28.4 °F 70% 29.87 in 10.0 mi WNW 24.2 mph - N/A   Overcast
12:55 PM 37.4 °F 26.6 °F 28.4 °F 70% 29.87 in 10.0 mi WNW 21.9 mph 32.2 mph N/A   Mostly Cloudy
1:15 PM 37.4 °F 24.8 °F 26.6 °F 65% 29.87 in 10.0 mi NW 31.1 mph 38.0 mph N/A   Mostly Cloudy
1:35 PM 35.6 °F 22.3 °F 24.8 °F 65% 29.89 in 10.0 mi North 31.1 mph 41.4 mph N/A   Overcast
1:55 PM 28.4 °F 12.7 °F 21.2 °F 74% 29.91 in 10.0 mi North 29.9 mph 34.5 mph N/A   Overcast
2:15 PM 28.4 °F 12.3 °F 23.0 °F 80% 29.93 in 10.0 mi NNW 32.2 mph 38.0 mph N/A   Overcast
2:35 PM 28.4 °F 13.3 °F 21.2 °F 74% 29.94 in 10.0 mi NNW 27.6 mph 35.7 mph N/A   Overcast
2:55 PM 26.6 °F 9.3 °F 15.8 °F 64% 29.97 in 10.0 mi NNW 34.5 mph 47.2 mph N/A   Mostly Cloudy
3:15 PM 24.8 °F 7.6 °F 12.2 °F 59% 30.00 in 10.0 mi NW 31.1 mph 44.9 mph N/A   Overcast
3:35 PM 19.4 °F 0.2 °F 10.4 °F 68% 30.02 in 10.0 mi NNW 31.1 mph 36.8 mph N/A   Mostly Cloudy
3:55 PM 19.4 °F 1.1 °F 10.4 °F 68% 30.03 in 10.0 mi NNW 27.6 mph 33.4 mph N/A   Scattered Clouds
4:15 PM 19.4 °F 0.5 °F 8.6 °F 63% 30.05 in 10.0 mi NNW 29.9 mph 35.7 mph N/A   Overcast
4:35 PM 17.6 °F -1.0 °F 10.4 °F 73% 30.08 in 2.5 mi NNW 26.5 mph 36.8 mph N/A   Overcast
4:55 PM 15.8 °F -5.5 °F 6.8 °F 68% 30.10 in 10.0 mi NW 34.5 mph 44.9 mph N/A   Overcast
5:15 PM 15.8 °F -4.4 °F 3.2 °F 58% 30.13 in 10.0 mi NW 29.9 mph 41.4 mph N/A   Scattered Clouds
5:35 PM 12.2 °F -8.9 °F 1.4 °F 62% 30.15 in 10.0 mi NW 28.8 mph 35.7 mph N/A   Scattered Clouds
5:55 PM 12.2 °F -11.0 °F -0.4 °F 57% 30.16 in 10.0 mi NW 36.8 mph 42.6 mph N/A   Scattered Clouds
6:15 PM 10.4 °F -10.3 °F -0.4 °F 62% 30.19 in 10.0 mi NNW 25.3 mph 39.1 mph N/A   Clear
6:35 PM 10.4 °F -11.0 °F -0.4 °F 62% 30.20 in 10.0 mi NW 27.6 mph 38.0 mph N/A   Mostly Cloudy
6:55 PM 10.4 °F -11.4 °F -0.4 °F 62% 30.21 in 10.0 mi NW 28.8 mph 36.8 mph N/A   Scattered Clouds
7:15 PM 8.6 °F -13.8 °F -0.4 °F 67% 30.22 in 10.0 mi NW 28.8 mph 33.4 mph N/A   Partly Cloudy
7:35 PM 8.6 °F -13.1 °F -2.2 °F 62% 30.23 in 10.0 mi NW 26.5 mph 34.5 mph N/A   Partly Cloudy
7:55 PM 6.8 °F -15.9 °F -2.2 °F 67% 30.24 in 10.0 mi NW 27.6 mph 38.0 mph N/A   Clear
8:15 PM 6.8 °F -15.1 °F -4.0 °F 61% 30.24 in 10.0 mi NW 25.3 mph 33.4 mph N/A   Clear
8:35 PM 6.8 °F -14.7 °F -4.0 °F 61% 30.25 in 10.0 mi NNW 24.2 mph 31.1 mph N/A   Clear
8:55 PM 6.8 °F -13.8 °F -2.2 °F 67% 30.27 in 10.0 mi NW 21.9 mph 25.3 mph N/A   Clear
9:15 PM 5.0 °F -17.5 °F -2.2 °F 72% 30.27 in 10.0 mi NW 25.3 mph 31.1 mph N/A   Clear
9:35 PM 5.0 °F -14.7 °F -2.2 °F 72% 30.28 in 10.0 mi NW 18.4 mph 25.3 mph N/A   Clear
9:55 PM 5.0 °F -14.7 °F -2.2 °F 72% 30.27 in 10.0 mi NW 18.4 mph - N/A   Clear
10:15 PM 3.2 °F -15.9 °F -4.0 °F 72% 30.28 in 10.0 mi NW 16.1 mph - N/A   Clear
10:35 PM 3.2 °F -18.6 °F -4.0 °F 72% 30.29 in 10.0 mi NW 21.9 mph 25.3 mph N/A   Clear
10:55 PM 3.2 °F -17.1 °F -4.0 °F 72% 30.30 in 10.0 mi NW 18.4 mph 21.9 mph N/A   Clear
11:15 PM 3.2 °F -18.1 °F -5.8 °F 66% 30.29 in 10.0 mi NW 20.7 mph 26.5 mph N/A   Clear
11:35 PM 3.2 °F -16.5 °F -4.0 °F 72% 30.30 in 10.0 mi NW 17.3 mph - N/A   Clear